Weather History for Canadian, TX

Change the Weather History Date:

Saturday, February 2, 2013

  Actual Average (KPPA) Record (KPPA)
Temperature  
Mean Temperature 42 °F -  
Max Temperature 59 °F 48 °F 68 °F (1984)
Min Temperature 24 °F 23 °F -4 °F (2011)
Degree Days  
Heating Degree Days 24    
Moisture  
Dew Point 24 °F    
Average Humidity 58    
Maximum Humidity 87    
Minimum Humidity 23    
Precipitation  
Precipitation 0.00 in - - ()
Sea Level Pressure  
Sea Level Pressure 30.28 in    
Wind  
Wind Speed 4 mph (WNW)    
Max Wind Speed 13 mph    
Max Gust Speed 20 mph    
Visibility 10 miles    
Events      
Averages and records for this station are not official NWS values.
T = Trace of Precipitation, MM = Missing Value Source: NWS Daily Summary

Daily Weather History Graph

Daily Weather History Graph

Search for Another Location

Airport:

Trip Planner

Search our weather history database for the weather conditions in past years. The results will help you decide how hot, cold, wet, or windy it might be!

Date:

Astronomy

Feb. 02, 2013 Rise Set
Actual Time 7:41 AM CST 6:10 PM CST
Civil Twilight 7:14 AM CST 6:37 PM CST
Nautical Twilight 6:43 AM CST 7:07 PM CST
Astronomical Twilight 6:13 AM CST 7:37 PM CST
Moon 12:04 AM CST (2/2) 11:07 AM CST (2/2)
Length of Visible Light 11h 22m
Length of Day
10h 29m
Waning Gibbous, 59% of the Moon is Illuminated
Feb 2
Waning Gibbous
Feb 3
Last Quarter
Feb 10
New
Feb 17
First Quarter
Feb 25
Full

Hourly Weather History & Observations

Time (CST) Temp. Windchill Dew Point Humidity Pressure Visibility Wind Dir Wind Speed Gust Speed Precip Events Conditions
12:15 AM 30.2 °F - 23.0 °F 75% 30.14 in 10.0 mi Calm Calm - N/A   Clear
12:55 AM 28.4 °F - 21.2 °F 74% 30.14 in 10.0 mi Calm Calm - N/A   Clear
1:15 AM 26.6 °F 22.6 °F 21.2 °F 80% 30.15 in 10.0 mi South 3.5 mph - N/A   Clear
1:55 AM 26.6 °F 20.0 °F 21.2 °F 80% 30.18 in 10.0 mi North 5.8 mph - N/A   Clear
2:15 AM 26.6 °F - 23.0 °F 86% 30.19 in 10.0 mi Calm Calm - N/A   Clear
2:35 AM 26.6 °F - 23.0 °F 86% 30.19 in 10.0 mi Calm Calm - N/A   Clear
2:55 AM 26.6 °F - 21.2 °F 80% 30.19 in 10.0 mi Calm Calm - N/A   Clear
3:15 AM 26.6 °F 22.6 °F 21.2 °F 80% 30.19 in 10.0 mi SW 3.5 mph - N/A   Clear
3:35 AM 26.6 °F 21.2 °F 21.2 °F 80% 30.19 in 10.0 mi SW 4.6 mph - N/A   Clear
3:55 AM 24.8 °F 19.1 °F 21.2 °F 86% 30.20 in 10.0 mi WSW 4.6 mph - N/A   Clear
4:15 AM 24.8 °F - 21.2 °F 86% 30.21 in 10.0 mi Calm Calm - N/A   Clear
4:35 AM 26.6 °F - 21.2 °F 80% 30.21 in 10.0 mi Calm Calm - N/A   Clear
4:55 AM 30.2 °F - 23.0 °F 75% 30.22 in 10.0 mi Calm Calm - N/A   Clear
5:15 AM 30.2 °F 25.4 °F 23.0 °F 75% 30.24 in 10.0 mi WNW 4.6 mph - N/A   Clear
5:35 AM 32.0 °F 28.7 °F 26.6 °F 80% 30.24 in 10.0 mi WNW 3.5 mph - N/A   Clear
5:55 AM 33.8 °F - 26.6 °F 75% 30.25 in 10.0 mi Calm Calm - N/A   Clear
6:15 AM 33.8 °F 30.8 °F 26.6 °F 75% 30.26 in 10.0 mi NW 3.5 mph - N/A   Clear
6:35 AM 33.8 °F 29.6 °F 28.4 °F 81% 30.26 in 10.0 mi WNW 4.6 mph - N/A   Clear
6:55 AM 33.8 °F 30.8 °F 28.4 °F 81% 30.27 in 10.0 mi West 3.5 mph - N/A   Clear
7:15 AM 32.0 °F 28.7 °F 28.4 °F 87% 30.28 in 10.0 mi West 3.5 mph - N/A   Clear
7:35 AM 33.8 °F 28.6 °F 28.4 °F 81% 30.29 in 10.0 mi NW 5.8 mph - N/A   Clear
7:55 AM 33.8 °F 27.7 °F 30.2 °F 87% 30.30 in 10.0 mi NW 6.9 mph - N/A   Clear
8:15 AM 33.8 °F 28.6 °F 30.2 °F 87% 30.32 in 10.0 mi NNW 5.8 mph - N/A   Clear
8:35 AM 35.6 °F 31.7 °F 30.2 °F 81% 30.32 in 10.0 mi NW 4.6 mph - N/A   Clear
8:55 AM 37.4 °F 32.8 °F 32.0 °F 81% 30.33 in 10.0 mi NW 5.8 mph - N/A   Clear
9:15 AM 39.2 °F 35.9 °F 32.0 °F 75% 30.33 in 10.0 mi NW 4.6 mph - N/A   Clear
9:35 AM 41.0 °F 36.4 °F 32.0 °F 70% 30.34 in 10.0 mi WNW 6.9 mph - N/A   Clear
9:55 AM 42.8 °F 39.3 °F 32.0 °F 66% 30.34 in 10.0 mi WNW 5.8 mph - N/A   Clear
10:15 AM 44.6 °F 39.7 °F 32.0 °F 61% 30.34 in 10.0 mi NW 9.2 mph - N/A   Clear
10:55 AM 48.2 °F - 32.0 °F 54% 30.34 in 10.0 mi North 6.9 mph - N/A   Clear
11:15 AM 50.0 °F - 32.0 °F 50% 30.34 in 10.0 mi North 5.8 mph - N/A   Clear
11:35 AM 51.8 °F - 32.0 °F 47% 30.34 in 10.0 mi NNW 5.8 mph - N/A   Clear
12:15 PM 55.4 °F - 26.6 °F 33% 30.33 in 10.0 mi North 12.7 mph 18.4 mph N/A   Clear
12:35 PM 55.4 °F - 24.8 °F 31% 30.32 in 10.0 mi NNE 9.2 mph 19.6 mph N/A   Clear
12:55 PM 55.4 °F - 23.0 °F 29% 30.31 in 10.0 mi North 9.2 mph - N/A   Clear
1:15 PM 55.4 °F - 23.0 °F 29% 30.30 in 10.0 mi North 6.9 mph 16.1 mph N/A   Clear
1:35 PM 55.4 °F - 23.0 °F 29% 30.30 in 10.0 mi North 6.9 mph - N/A   Clear
1:55 PM 55.4 °F - 23.0 °F 29% 30.29 in 10.0 mi North 11.5 mph - N/A   Clear
2:15 PM 57.2 °F - 21.2 °F 25% 30.28 in 10.0 mi North 4.6 mph - N/A   Clear
2:35 PM 59.0 °F - 23.0 °F 25% 30.28 in 10.0 mi NW 10.4 mph - N/A   Clear
2:55 PM 59.0 °F - 23.0 °F 25% 30.28 in 10.0 mi North 10.4 mph - N/A   Clear
3:15 PM 59.0 °F - 21.2 °F 23% 30.28 in 10.0 mi NNW 6.9 mph - N/A   Clear
3:35 PM 59.0 °F - 21.2 °F 23% 30.28 in 10.0 mi North 3.5 mph - N/A   Clear
3:55 PM 59.0 °F - 21.2 °F 23% 30.28 in 10.0 mi NNW 6.9 mph - N/A   Clear
4:15 PM 59.0 °F - 21.2 °F 23% 30.28 in 10.0 mi NNE 6.9 mph - N/A   Clear
4:35 PM 59.0 °F - 21.2 °F 23% 30.28 in 10.0 mi NW 4.6 mph - N/A   Clear
4:55 PM 59.0 °F - 21.2 °F 23% 30.28 in 10.0 mi NW 5.8 mph - N/A   Clear
5:15 PM 57.2 °F - 21.2 °F 25% 30.28 in 10.0 mi Calm Calm - N/A   Clear
5:55 PM 55.4 °F - 21.2 °F 26% 30.28 in 10.0 mi Calm Calm - N/A   Clear
6:15 PM 53.6 °F - 21.2 °F 28% 30.28 in 10.0 mi Calm Calm - N/A   Clear
6:55 PM 46.4 °F - 21.2 °F 37% 30.29 in 10.0 mi Calm Calm - N/A   Clear
7:15 PM 42.8 °F 41.1 °F 21.2 °F 42% 30.29 in 10.0 mi South 3.5 mph - N/A   Clear
7:35 PM 37.4 °F 34.9 °F 21.2 °F 52% 30.29 in 10.0 mi South 3.5 mph - N/A   Clear
7:55 PM 35.6 °F 32.8 °F 21.2 °F 56% 30.30 in 10.0 mi SSW 3.5 mph - N/A   Clear
8:15 PM 35.6 °F 32.8 °F 21.2 °F 56% 30.30 in 10.0 mi SW 3.5 mph - N/A   Clear
8:35 PM 35.6 °F 31.7 °F 21.2 °F 56% 30.31 in 10.0 mi SSW 4.6 mph - N/A   Clear
8:55 PM 33.8 °F 28.6 °F 21.2 °F 60% 30.31 in 10.0 mi SW 5.8 mph - N/A   Clear
9:15 PM 33.8 °F 27.7 °F 21.2 °F 60% 30.32 in 10.0 mi SW 6.9 mph - N/A   Clear
9:35 PM 35.6 °F 30.7 °F 23.0 °F 60% 30.32 in 10.0 mi SW 5.8 mph - N/A   Clear
9:55 PM 35.6 °F 31.7 °F 23.0 °F 60% 30.32 in 10.0 mi SW 4.6 mph - N/A   Clear
10:15 PM 33.8 °F 29.6 °F 23.0 °F 65% 30.32 in 10.0 mi SW 4.6 mph - N/A   Clear
10:55 PM 32.0 °F 28.7 °F 21.2 °F 64% 30.31 in 10.0 mi WSW 3.5 mph - N/A   Clear
11:15 PM 32.0 °F - 21.2 °F 64% 30.31 in 10.0 mi Calm Calm - N/A   Clear
11:35 PM 32.0 °F 27.5 °F 23.0 °F 69% 30.30 in 10.0 mi WSW 4.6 mph - N/A   Clear
11:55 PM 32.0 °F - 23.0 °F 69% 30.30 in 10.0 mi Calm Calm - N/A   Clear